| time (UTC) | temp F | wind direction | speed MPH | gust MPH | rain 1hr in | rain 24hr in | rain mn in | humidity % | barometer mb |
| 20260905014616 | 81 | 0 | 0.0 | 0.0 | 0.00 | 0.00 | 0.00 | 82 | 1016.7 |
| 20260905013105 | 82 | 0 | 0.0 | 0.0 | 0.00 | 0.00 | 0.00 | 81 | 1016.7 |
| 20260905011606 | 82 | 0 | 0.0 | 0.0 | 0.00 | 0.00 | 0.00 | 80 | 1016.6 |
| 20260905010058 | 83 | 0 | 0.0 | 0.0 | 0.00 | 0.00 | 0.00 | 78 | 1016.6 |
| 20260905004602 | 83 | 0 | 0.0 | 0.0 | 0.00 | 0.00 | 0.00 | 76 | 1016.3 |
| 20260905003100 | 84 | 0 | 0.0 | 0.0 | 0.00 | 0.00 | 0.00 | 75 | 1016.1 |
| 20260905001557 | 85 | 0 | 0.0 | 0.0 | 0.00 | 0.00 | 0.00 | 76 | 1016.0 |
| 20260905000105 | 86 | 0 | 0.0 | 0.0 | 0.00 | 0.00 | 0.00 | 76 | 1016.2 |
| 20260904234558 | 88 | 0 | 0.0 | 0.0 | 0.00 | 0.00 | 0.00 | 72 | 1016.1 |
| 20260904233059 | 89 | 0 | 0.0 | 0.0 | 0.00 | 0.00 | 0.00 | 70 | 1015.9 |
| 20260904231559 | 90 | 0 | 0.0 | 2.0 | 0.00 | 0.00 | 0.00 | 68 | 1015.8 |
| 20260904230105 | 90 | 149 | 2.0 | 5.0 | 0.00 | 0.00 | 0.00 | 67 | 1015.7 |
| 20260904224605 | 91 | 147 | 3.0 | 6.0 | 0.00 | 0.00 | 0.00 | 63 | 1015.6 |
| 20260904223103 | 92 | 136 | 3.0 | 5.0 | 0.00 | 0.00 | 0.00 | 63 | 1015.5 |
| 20260904221606 | 92 | 140 | 4.0 | 8.0 | 0.00 | 0.00 | 0.00 | 61 | 1015.5 |
| 20260904220059 | 93 | 135 | 3.0 | 8.0 | 0.00 | 0.00 | 0.00 | 59 | 1015.6 |
| 20260904214557 | 94 | 147 | 2.0 | 8.0 | 0.00 | 0.00 | 0.00 | 58 | 1015.6 |
| 20260904213100 | 93 | 137 | 2.0 | 7.0 | 0.00 | 0.00 | 0.00 | 60 | 1015.4 |
| 20260904211603 | 92 | 131 | 4.0 | 9.0 | 0.00 | 0.00 | 0.00 | 60 | 1015.7 |
| 20260904210059 | 92 | 182 | 4.0 | 10.0 | 0.00 | 0.00 | 0.00 | 61 | 1015.8 |
| 20260904204557 | 91 | 107 | 3.0 | 9.0 | 0.00 | 0.00 | 0.00 | 60 | 1016.0 |
| 20260904203100 | 95 | 134 | 5.0 | 10.0 | 0.00 | 0.00 | 0.00 | 56 | 1016.2 |
| 20260904201633 | 98 | 0 | 0.0 | 3.0 | 0.00 | 0.00 | 0.00 | 52 | 1016.1 |
| 20260904200058 | 98 | 0 | 1.0 | 5.0 | 0.00 | 0.00 | 0.00 | 51 | 1016.0 |
| 20260904194609 | 98 | 0 | 0.0 | 4.0 | 0.00 | 0.00 | 0.00 | 51 | 1016.3 |
| 20260904193104 | 98 | 15 | 0.0 | 4.0 | 0.00 | 0.00 | 0.00 | 51 | 1016.6 |
| 20260904191559 | 98 | 338 | 0.0 | 4.0 | 0.00 | 0.00 | 0.00 | 53 | 1016.9 |
| 20260904190059 | 97 | 221 | 0.0 | 7.0 | 0.00 | 0.00 | 0.00 | 56 | 1016.9 |
| 20260904184601 | 96 | 269 | 2.0 | 6.0 | 0.00 | 0.00 | 0.00 | 55 | 1017.1 |
| 20260904183057 | 96 | 0 | 1.0 | 7.0 | 0.00 | 0.00 | 0.00 | 57 | 1017.3 |
| 20260904181556 | 96 | 0 | 1.0 | 6.0 | 0.00 | 0.00 | 0.00 | 55 | 1017.5 |
| 20260904180059 | 96 | 0 | 0.0 | 4.0 | 0.00 | 0.00 | 0.00 | 54 | 1017.7 |
| 20260904174556 | 96 | 94 | 0.0 | 4.0 | 0.00 | 0.00 | 0.00 | 57 | 1018.0 |
| 20260904173120 | 95 | 0 | 1.0 | 6.0 | 0.00 | 0.00 | 0.00 | 56 | 1018.1 |
| 20260904171609 | 95 | 0 | 0.0 | 3.0 | 0.00 | 0.00 | 0.00 | 56 | 1018.3 |
| 20260904170058 | 95 | 88 | 0.0 | 3.0 | 0.00 | 0.00 | 0.00 | 56 | 1018.4 |
| 20260904164559 | 93 | 0 | 0.0 | 4.0 | 0.00 | 0.00 | 0.00 | 63 | 1018.6 |
| 20260904163054 | 93 | 267 | 1.0 | 4.0 | 0.00 | 0.00 | 0.00 | 64 | 1018.6 |
| 20260904161558 | 93 | 0 | 0.0 | 6.0 | 0.00 | 0.00 | 0.00 | 62 | 1018.8 |
| 20260904160101 | 91 | 26 | 0.0 | 4.0 | 0.00 | 0.00 | 0.00 | 66 | 1018.9 |
| 20260904154557 | 91 | 0 | 1.0 | 5.0 | 0.00 | 0.00 | 0.00 | 66 | 1018.9 |
| 20260904153055 | 90 | 0 | 0.0 | 3.0 | 0.00 | 0.00 | 0.00 | 70 | 1018.9 |
| 20260904151614 | 89 | 167 | 0.0 | 4.0 | 0.00 | 0.00 | 0.00 | 71 | 1019.0 |
| 20260904150124 | 87 | 0 | 0.0 | 6.0 | 0.00 | 0.00 | 0.00 | 71 | 1019.0 |
| 20260904144556 | 87 | 191 | 0.0 | 4.0 | 0.00 | 0.00 | 0.00 | 74 | 1018.9 |
| 20260904143104 | 85 | 146 | 2.0 | 5.0 | 0.00 | 0.00 | 0.00 | 75 | 1018.8 |
| 20260904141612 | 84 | 154 | 2.0 | 3.0 | 0.00 | 0.00 | 0.00 | 78 | 1018.7 |
| 20260904134603 | 81 | 140 | 0.0 | 0.0 | 0.00 | 0.00 | 0.00 | 82 | 1018.6 |
| 20260904133100 | 80 | 0 | 0.0 | 0.0 | 0.00 | 0.00 | 0.00 | 84 | 1018.6 |
| 20260904131558 | 79 | 0 | 0.0 | 0.0 | 0.00 | 0.00 | 0.00 | 86 | 1018.5 |
| 20260904130058 | 78 | 0 | 0.0 | 0.0 | 0.00 | 0.00 | 0.00 | 88 | 1018.6 |
| 20260904124558 | 76 | 0 | 0.0 | 0.0 | 0.00 | 0.00 | 0.00 | 90 | 1018.5 |
| 20260904123058 | 76 | 0 | 0.0 | 0.0 | 0.00 | 0.00 | 0.00 | 90 | 1018.4 |
| 20260904121556 | 75 | 0 | 0.0 | 0.0 | 0.00 | 0.00 | 0.00 | 91 | 1018.2 |
| 20260904120106 | 75 | 0 | 0.0 | 0.0 | 0.00 | 0.00 | 0.00 | 92 | 1018.3 |
| 20260904114558 | 74 | 0 | 0.0 | 0.0 | 0.00 | 0.00 | 0.00 | 92 | 1018.1 |
| 20260904113102 | 74 | 0 | 0.0 | 0.0 | 0.00 | 0.00 | 0.00 | 93 | 1018.1 |
| 20260904111602 | 74 | 0 | 0.0 | 0.0 | 0.00 | 0.00 | 0.00 | 92 | 1017.9 |
| 20260904110059 | 74 | 0 | 0.0 | 0.0 | 0.00 | 0.00 | 0.00 | 91 | 1017.5 |
| 20260904104600 | 74 | 140 | 1.0 | 3.0 | 0.00 | 0.00 | 0.00 | 92 | 1017.3 |
| 20260904103056 | 74 | 139 | 1.0 | 3.0 | 0.00 | 0.00 | 0.00 | 92 | 1017.3 |
| 20260904101555 | 74 | 0 | 0.0 | 2.0 | 0.00 | 0.00 | 0.00 | 92 | 1017.3 |
| 20260904100058 | 74 | 134 | 1.0 | 4.0 | 0.00 | 0.00 | 0.00 | 94 | 1017.2 |
| 20260904094603 | 73 | 0 | 0.0 | 0.0 | 0.00 | 0.00 | 0.00 | 94 | 1017.4 |
| 20260904093107 | 73 | 0 | 0.0 | 0.0 | 0.00 | 0.00 | 0.00 | 94 | 1017.3 |
| 20260904091555 | 73 | 0 | 0.0 | 0.0 | 0.00 | 0.00 | 0.00 | 94 | 1017.1 |
| 20260904090100 | 74 | 0 | 0.0 | 0.0 | 0.00 | 0.00 | 0.00 | 94 | 1017.0 |
| 20260904084600 | 74 | 0 | 0.0 | 0.0 | 0.00 | 0.00 | 0.00 | 93 | 1017.1 |
| 20260904083056 | 74 | 0 | 0.0 | 0.0 | 0.00 | 0.00 | 0.00 | 94 | 1017.0 |
| 20260904081601 | 74 | 0 | 0.0 | 0.0 | 0.00 | 0.00 | 0.00 | 93 | 1017.0 |
| 20260904080057 | 74 | 0 | 0.0 | 0.0 | 0.00 | 0.00 | 0.00 | 93 | 1017.0 |
| 20260904074557 | 74 | 0 | 0.0 | 0.0 | 0.00 | 0.00 | 0.00 | 92 | 1016.8 |
| 20260904073054 | 75 | 0 | 0.0 | 0.0 | 0.00 | 0.00 | 0.00 | 91 | 1016.8 |
| 20260904071553 | 75 | 0 | 0.0 | 0.0 | 0.00 | 0.00 | 0.00 | 90 | 1017.0 |
| 20260904070055 | 76 | 0 | 0.0 | 0.0 | 0.00 | 0.00 | 0.00 | 89 | 1017.0 |
| 20260904064557 | 76 | 0 | 0.0 | 0.0 | 0.00 | 0.00 | 0.00 | 89 | 1017.1 |
| 20260904063059 | 76 | 0 | 0.0 | 0.0 | 0.00 | 0.00 | 0.00 | 89 | 1017.1 |
| 20260904061559 | 76 | 0 | 0.0 | 0.0 | 0.00 | 0.00 | 0.00 | 88 | 1017.2 |
| 20260904060059 | 77 | 0 | 0.0 | 0.0 | 0.00 | 0.00 | 0.00 | 87 | 1017.2 |
| 20260904054557 | 78 | 0 | 0.0 | 0.0 | 0.00 | 0.00 | 0.00 | 87 | 1017.3 |
| 20260904053058 | 78 | 0 | 0.0 | 0.0 | 0.00 | 0.00 | 0.00 | 84 | 1017.4 |
| 20260904051558 | 79 | 0 | 0.0 | 0.0 | 0.00 | 0.00 | 0.00 | 83 | 1017.4 |
| 20260904044557 | 80 | 130 | 1.0 | 3.0 | 0.00 | 0.00 | 0.00 | 82 | 1017.5 |
| 20260904043058 | 80 | 130 | 1.0 | 3.0 | 0.00 | 0.00 | 0.00 | 81 | 1017.4 |
| 20260904041556 | 80 | 130 | 1.0 | 4.0 | 0.00 | 0.00 | 0.00 | 80 | 1017.5 |
| 20260904040107 | 81 | 0 | 0.0 | 0.0 | 0.00 | 0.00 | 0.00 | 79 | 1017.7 |
| 20260904034558 | 81 | 0 | 0.0 | 0.0 | 0.00 | 0.00 | 0.00 | 79 | 1017.8 |
| 20260904033053 | 82 | 0 | 1.0 | 4.0 | 0.00 | 0.00 | 0.00 | 78 | 1017.8 |
| 20260904031555 | 82 | 150 | 2.0 | 3.0 | 0.00 | 0.00 | 0.00 | 77 | 1017.9 |
| 20260904030100 | 83 | 150 | 1.0 | 3.0 | 0.00 | 0.00 | 0.00 | 76 | 1018.0 |
| 20260904024604 | 83 | 150 | 1.0 | 4.0 | 0.00 | 0.00 | 0.00 | 76 | 1018.1 |
| 20260904023101 | 82 | 0 | 0.0 | 0.0 | 0.00 | 0.00 | 0.00 | 79 | 1018.1 |
| 20260904021604 | 82 | 0 | 0.0 | 0.0 | 0.00 | 0.00 | 0.00 | 80 | 1018.0 |
| 20260904020054 | 83 | 0 | 0.0 | 0.0 | 0.00 | 0.00 | 0.00 | 82 | 1017.7 |